Vorticity
-0 7 -6 28 43 3 3 5 4 3 2 7 3 2 6 10 5 7 6 4 7 6 9 7 4 3 7 5 5 8 6 6 4 5 4 5 5 5 6 5 6 5 4 4 4 4 4 4 5 4 3 4 3 4 5 6 4 3 4 4 4 4 4 5 6 6 5 6 7 9 10 11 10 9 8 7 7 8 8 9 8 7 7 7 6 6 6 5 5 4 4 5 5 6 5 4 5
2 7 1 49 49 0 4 3 6 4 2 5 4 8 5 8 6 6 6 6 7 7 10 7 8 8 8 5 3 7 7 7 5 4 3 5 6 6 7 7 7 6 6 5 4 4 4 5 5 5 5 5 5 6 6 7 7 6 6 6 6 6 6 6 8 8 8 9 11 11 9 8 6 7 8 7 8 8 7 7 7 6 6 7 7 6 7 5 4 3 4 5 6 6 5 5 5
3 3 14 58 34 -2 7 -0 7 4 1 6 6 6 2 9 8 6 6 6 5 4 8 7 10 10 8 6 5 9 9 8 5 4 4 4 5 6 8 9 8 7 8 7 6 6 6 7 8 9 9 9 9 8 8 8 10 10 10 10 10 10 9 9 9 10 9 8 8 7 5 5 6 6 7 8 7 7 8 7 6 6 6 7 8 7 7 5 4 3 3 5 6 6 5 5 6
3 3 13 43 22 -0 7 1 7 2 3 9 6 1 2 12 8 7 4 4 5 3 7 6 8 9 8 7 7 10 8 8 6 5 3 4 7 8 9 9 9 9 9 8 8 8 9 10 10 11 10 9 8 8 7 8 9 9 10 10 10 9 8 8 7 8 7 6 5 4 4 4 6 7 6 8 7 7 8 6 6 5 6 8 8 7 6 4 3 3 4 5 6 7 6 5 5
3 4 3 24 24 6 5 7 6 3 6 4 4 1 6 12 7 8 4 6 7 5 8 6 8 7 8 8 9 9 7 8 7 7 4 7 11 10 9 9 10 10 9 9 9 8 9 8 8 7 6 6 6 6 6 5 5 6 6 6 7 6 6 6 5 5 5 4 3 3 4 5 7 8 6 6 7 6 7 7 6 5 5 7 7 6 5 3 3 4 4 5 6 7 6 4 6
0 6 2 11 23 14 5 6 4 6 6 0 5 6 8 10 8 9 5 8 8 7 7 6 7 6 8 9 8 8 8 9 8 9 7 9 12 9 7 8 8 8 7 6 6 6 5 4 4 4 4 5 5 5 5 5 4 4 4 4 4 4 4 4 3 3 3 3 3 3 3 5 6 7 6 5 7 5 6 7 6 5 5 7 7 6 4 3 3 5 5 6 7 8 6 4 6
1 4 1 2 15 19 5 -0 5 9 7 2 6 8 7 8 10 9 6 7 6 6 5 7 8 7 9 5 8 12 9 10 10 9 7 8 9 8 7 7 6 5 5 4 4 4 4 4 5 5 5 5 6 6 6 6 4 5 5 5 5 5 5 4 4 3 3 4 3 3 2 5 5 6 6 4 5 4 5 7 7 6 4 6 7 6 4 3 4 5 5 7 8 8 6 4 6
4 2 -0 1 8 18 12 5 5 6 6 5 7 10 8 6 9 8 7 6 5 5 4 8 6 6 7 4 11 13 8 9 10 7 6 8 7 7 6 5 5 4 5 4 5 5 5 6 6 6 6 6 6 6 6 6 5 6 7 7 7 6 8 7 7 7 6 7 8 8 9 12 9 7 6 6 7 4 6 7 6 5 5 5 5 5 4 4 5 5 6 7 8 8 5 5 7
3 2 1 5 7 11 16 9 -1 1 5 7 9 11 8 6 10 9 8 6 5 6 5 7 5 8 10 10 14 9 7 8 8 7 5 7 7 6 5 5 5 5 4 4 5 5 6 7 7 7 7 7 7 8 7 8 7 6 7 7 7 7 8 7 9 10 11 11 12 14 14 15 15 12 8 7 6 2 4 5 5 5 5 5 5 5 4 4 5 6 7 8 9 7 5 5 8
3 3 1 6 11 10 13 6 0 7 5 5 9 9 7 7 12 10 6 6 6 6 7 8 7 11 11 12 15 8 7 7 6 7 6 7 6 6 5 5 5 4 4 4 5 5 7 6 6 6 7 8 8 8 8 8 7 6 7 7 9 10 10 9 9 10 11 9 8 9 10 11 12 15 12 8 7 5 6 5 6 6 4 5 5 4 4 5 6 7 8 8 8 6 4 5 9
6 3 2 2 6 10 10 2 5 12 1 3 13 12 6 4 11 10 5 6 7 6 7 9 8 12 11 10 13 7 7 7 6 8 8 7 5 6 5 5 5 4 5 5 5 6 7 7 7 8 9 11 11 10 10 9 9 8 9 9 9 10 10 8 7 7 7 5 5 6 7 8 8 10 9 7 8 10 10 6 5 6 5 5 5 4 3 5 7 9 9 8 7 5 5 6 10
6 2 4 1 4 17 12 0 9 10 -3 4 11 10 7 3 7 8 8 6 6 8 7 8 10 13 11 8 10 7 8 7 4 7 7 6 6 6 6 5 6 5 5 4 5 7 9 11 10 8 9 11 11 9 8 8 8 8 7 7 6 6 7 6 6 7 5 4 6 7 8 8 9 8 6 8 9 10 12 9 6 6 6 5 5 4 2 5 7 9 9 7 6 5 6 8 10
5 2 5 3 5 15 8 1 10 7 1 4 2 7 9 6 8 6 7 6 3 8 7 8 10 12 10 8 11 8 8 7 6 8 6 6 7 7 6 5 5 5 5 6 8 9 10 9 8 6 6 6 6 6 6 6 6 6 5 6 6 6 6 7 9 8 6 6 7 9 9 8 8 7 8 11 9 9 13 13 8 7 7 6 6 4 3 5 7 9 8 6 5 6 7 9 9
5 4 6 5 2 4 4 6 10 5 6 4 -3 6 9 7 11 3 1 5 4 7 7 7 9 11 11 9 11 9 6 7 9 8 7 8 8 7 7 5 6 6 7 10 9 7 6 6 6 6 6 6 6 6 7 6 6 5 6 7 8 7 6 7 9 8 8 9 9 10 9 7 7 8 9 9 6 9 13 15 12 7 7 7 6 4 4 6 8 9 7 5 6 7 9 9 9
4 5 5 4 4 3 4 10 11 1 3 5 -1 5 8 5 7 3 1 5 5 7 6 6 9 8 9 10 10 9 7 7 8 8 9 8 6 7 7 6 7 7 8 9 7 4 4 5 6 6 6 7 8 8 8 7 7 7 8 8 7 6 8 11 10 8 10 10 10 12 11 9 9 9 10 10 10 13 14 15 13 8 8 7 6 5 5 7 8 8 6 5 7 7 8 9 8
4 5 2 3 6 5 2 6 9 2 2 6 2 6 9 3 6 8 3 3 7 7 5 5 9 8 9 12 10 9 7 7 8 8 9 6 6 6 6 7 7 7 8 6 5 3 3 4 5 6 6 7 8 8 8 7 7 7 7 7 6 7 10 13 11 11 12 11 11 13 12 11 12 11 11 12 13 14 15 15 12 10 10 8 6 7 7 7 7 7 6 7 8 7 7 8 7
6 4 3 4 5 5 4 5 6 4 7 8 7 8 5 0 9 11 -0 1 8 5 5 6 6 9 10 11 11 8 7 8 8 7 8 6 6 6 5 7 7 7 7 5 5 5 5 6 6 6 6 7 8 8 8 7 6 6 6 6 6 8 11 11 12 14 14 13 11 11 12 12 12 10 9 9 9 12 13 13 12 12 11 8 7 7 7 7 7 6 7 8 8 8 7 7 7
6 5 4 2 3 4 5 6 3 6 13 7 2 5 0 0 8 7 1 3 8 4 4 7 5 8 10 10 11 8 7 8 7 7 7 6 7 7 6 6 7 7 7 6 5 6 6 6 7 8 8 7 6 7 7 6 6 6 5 7 9 11 12 12 13 14 14 13 11 9 11 12 12 11 8 7 9 11 12 12 12 12 11 8 7 8 8 7 6 7 8 8 7 7 8 7 7
4 5 4 1 2 2 3 5 2 6 11 -0 -3 8 4 2 6 4 4 3 4 5 3 6 7 8 10 8 9 8 7 7 7 6 7 7 8 8 7 6 6 6 6 8 7 7 6 5 6 7 7 7 7 8 7 6 6 6 7 9 12 14 13 12 13 13 12 12 12 11 11 11 11 11 9 10 11 13 14 13 11 11 10 8 8 9 8 6 7 8 8 7 7 7 7 8 8
5 3 2 4 4 3 5 3 4 5 5 9 9 14 10 3 9 5 3 6 4 4 3 6 9 9 9 7 8 8 6 7 6 6 7 7 8 8 7 5 5 6 7 7 7 8 6 3 5 8 8 7 8 8 7 8 7 6 8 10 11 12 12 12 12 12 11 12 13 12 12 10 10 10 10 11 11 11 11 10 10 10 9 8 9 8 7 7 8 7 7 6 7 7 7 8 9
6 3 4 5 4 4 4 1 10 8 8 26 11 6 26 9 4 10 5 7 5 4 5 6 9 8 7 7 8 8 7 8 7 6 7 7 8 7 6 6 6 7 7 7 6 7 7 3 4 8 7 7 8 8 8 8 7 6 7 10 9 8 9 10 9 10 12 13 13 12 11 11 10 10 10 10 9 9 8 8 8 9 10 9 8 7 7 8 7 5 6 7 7 7 8 8 9
4 5 6 5 5 -1 2 1 10 17 18 41 20 1 28 6 -6 12 5 4 5 6 5 5 10 6 7 9 7 7 7 7 7 7 8 6 6 8 7 6 6 7 7 6 7 8 8 6 7 9 7 8 9 7 7 6 5 6 8 11 8 6 8 10 9 9 12 14 13 11 11 11 10 9 8 8 8 8 9 9 10 9 10 9 9 8 8 6 5 5 7 7 7 8 9 9 8
4 5 4 4 6 -4 4 1 9 33 23 40 36 -2 8 2 -5 9 5 5 8 8 4 4 10 5 7 12 8 7 8 6 6 7 8 6 5 7 6 5 5 5 7 7 7 7 6 7 9 9 7 8 8 5 6 6 7 8 11 14 9 8 10 10 9 7 10 12 12 11 10 8 8 8 8 8 7 8 8 9 10 10 9 9 8 7 6 5 4 7 9 8 8 9 10 9 7
3 5 5 5 6 0 8 3 15 42 24 34 34 0 11 10 -2 5 7 8 7 8 5 3 9 5 6 11 8 7 8 7 6 6 7 7 5 6 6 5 5 4 6 8 8 7 6 6 5 4 5 7 6 5 6 7 9 10 12 15 11 10 10 10 9 8 9 10 12 10 9 8 7 8 9 9 8 7 8 8 9 9 8 7 6 5 5 5 5 8 9 9 9 10 9 7 5
4 1 4 6 6 2 6 11 21 24 30 45 15 -1 19 8 1 7 6 7 5 8 5 3 8 7 6 8 8 6 7 9 8 6 6 6 5 5 7 5 5 5 6 7 8 8 7 5 5 5 6 8 6 5 7 8 11 11 11 12 10 9 10 11 10 9 8 8 9 7 6 7 8 9 9 10 10 9 8 8 8 9 8 5 4 5 5 5 7 9 9 10 10 8 7 5 4
4 -0 -0 4 7 8 8 14 15 5 36 55 12 8 13 -1 9 3 0 10 4 6 5 4 8 8 8 6 6 6 6 7 8 8 6 7 5 4 7 7 6 6 6 8 8 8 7 7 7 8 9 9 8 6 7 9 11 11 10 10 9 9 10 10 9 9 8 7 7 6 6 9 12 11 9 9 10 11 11 9 9 8 8 5 4 6 6 8 10 10 10 10 8 5 4 4 3
10 8 0 5 7 10 11 7 6 3 27 34 13 19 4 -2 12 -6 0 13 4 9 6 5 7 7 8 5 5 6 5 5 7 9 6 7 6 3 6 8 8 7 7 7 9 8 6 8 7 8 10 10 9 8 8 9 10 10 10 10 10 10 8 8 9 9 8 7 8 8 8 10 12 12 8 9 11 12 12 10 10 8 7 5 5 9 10 11 11 11 10 8 5 3 3 3 3
16 14 3 9 7 5 11 5 4 5 9 9 6 11 1 4 11 -2 3 5 4 12 5 6 7 6 8 4 4 6 6 6 7 9 6 6 7 4 5 8 9 7 6 6 7 8 7 9 7 6 9 10 10 9 9 9 9 10 10 10 10 8 7 8 9 8 8 7 7 8 9 10 11 10 8 8 9 9 9 8 8 8 7 7 8 11 12 11 11 10 9 6 3 3 2 2 4
15 14 6 9 6 5 11 4 2 4 4 5 6 9 6 6 7 7 7 3 8 9 5 8 4 5 8 4 4 6 8 7 5 7 6 6 6 6 4 5 9 7 6 5 6 7 9 10 6 7 9 8 9 9 8 9 8 9 11 10 9 8 7 8 9 7 7 6 8 9 10 11 9 8 8 8 8 7 7 8 8 8 9 11 12 12 12 11 9 8 6 4 3 3 3 4 5
15 10 7 9 6 7 11 5 2 4 2 2 8 12 8 2 4 9 9 8 9 5 7 8 3 8 7 4 5 5 7 6 5 5 5 7 5 6 4 3 7 9 7 5 6 7 8 11 8 8 10 10 10 9 9 10 9 8 9 10 8 8 8 7 8 7 7 7 9 10 11 12 11 11 12 12 12 11 12 12 11 11 11 12 13 12 11 9 6 4 3 3 3 4 5 6 6
14 5 6 10 6 7 10 5 3 5 2 1 8 10 5 3 4 6 8 11 8 4 8 6 4 8 6 5 4 5 6 4 7 6 3 7 6 5 5 3 5 8 9 5 5 7 7 10 10 8 10 12 11 9 9 9 10 9 8 9 9 9 8 7 7 8 9 10 10 10 10 11 11 11 12 12 12 13 13 13 14 14 13 12 11 10 8 5 4 3 3 4 6 6 6 6 6
10 3 5 9 2 3 8 6 5 5 3 3 8 8 6 6 4 5 8 12 10 5 7 6 4 7 9 7 3 4 4 3 9 8 3 5 6 6 5 4 4 6 8 6 5 5 7 9 10 9 8 10 10 8 9 9 9 9 8 8 9 9 9 8 8 9 11 11 10 9 8 8 9 9 9 9 9 10 10 10 12 12 11 10 8 7 4 4 4 4 4 3 4 4 3 4 6
8 4 4 7 0 -1 5 7 6 4 1 3 8 7 5 6 3 3 7 13 13 6 7 7 2 6 9 7 7 5 3 4 8 7 5 5 5 6 6 5 4 5 6 6 6 4 6 9 9 10 8 8 8 7 8 9 8 9 9 9 9 10 10 9 9 11 12 10 9 8 7 7 7 7 7 7 7 6 7 7 7 8 7 7 5 5 4 5 5 4 5 4 2 3 3 4 6
10 7 7 10 3 -2 2 6 6 6 4 2 4 5 4 5 4 2 5 13 14 7 8 8 2 4 6 7 11 7 4 5 6 8 6 5 5 4 6 6 4 4 4 5 7 5 5 8 8 9 8 8 9 8 7 7 8 8 10 10 10 11 11 11 11 11 10 8 8 7 7 7 7 7 7 7 7 6 6 6 6 6 6 6 5 4 4 4 4 3 5 5 4 6 8 7 7
14 11 9 14 9 1 -0 4 6 6 7 8 5 4 3 4 5 4 2 6 12 10 8 7 4 3 3 6 9 7 7 6 5 8 7 5 6 5 5 6 5 4 3 4 6 6 4 6 8 8 7 8 8 9 8 6 7 8 9 10 11 11 12 12 12 12 10 7 7 6 6 7 7 7 6 6 7 7 7 6 6 6 5 5 4 4 3 3 3 3 3 4 4 7 8 8 8
12 7 6 12 10 4 1 3 5 3 4 9 8 5 3 2 4 7 3 1 7 11 10 8 5 4 3 4 7 6 7 9 7 7 8 7 5 6 6 4 6 5 3 3 4 6 5 4 8 8 7 7 7 8 8 6 6 7 7 8 9 10 11 12 11 10 9 7 6 6 6 6 6 6 6 6 7 7 6 5 5 5 5 5 4 4 4 4 5 6 6 6 6 6 6 6 8
7 -2 -0 10 9 2 3 3 4 4 3 6 9 10 8 3 2 6 4 2 2 6 12 11 5 4 3 3 6 6 4 9 11 7 6 6 5 6 6 4 5 5 5 4 3 5 6 4 6 8 8 7 6 7 8 7 6 5 6 6 7 7 7 9 10 9 9 8 7 6 5 5 5 5 4 5 5 6 6 6 6 6 6 6 6 7 6 7 8 8 7 6 6 6 6 7 9
9 2 -5 6 9 1 5 7 5 9 5 4 7 9 11 10 5 2 3 6 3 1 9 12 7 5 4 2 4 5 4 7 11 10 7 5 6 5 5 6 5 5 5 4 5 5 4 5 4 6 8 7 6 6 7 9 7 5 4 5 5 5 5 6 6 8 8 8 7 6 6 5 4 4 4 4 4 5 5 6 6 6 6 6 6 7 6 7 7 7 6 5 5 4 5 8 10
10 8 -6 -1 7 -0 5 6 3 10 8 4 7 5 8 16 13 4 2 4 1 -1 4 10 10 6 5 4 2 3 4 6 9 10 9 7 6 5 5 7 6 5 5 4 6 5 3 5 4 4 7 7 6 7 8 10 9 7 5 4 4 3 4 4 4 6 6 7 7 6 6 6 5 5 5 5 5 5 5 6 6 6 5 5 5 5 5 6 5 5 4 5 5 4 4 7 8
12 9 -2 1 9 1 3 6 2 7 8 5 10 7 4 15 22 14 6 4 -0 -1 3 7 9 8 8 5 2 4 3 4 7 8 9 9 7 6 5 6 6 5 5 5 6 5 4 5 5 5 6 7 7 7 8 9 9 10 8 6 5 4 4 3 4 5 5 6 6 7 7 6 6 6 6 6 6 6 6 6 6 5 5 5 4 5 5 5 5 5 5 5 5 6 7 8 7
11 11 -1 -6 7 7 2 9 8 7 8 7 9 8 2 11 25 20 10 8 5 2 1 5 9 6 8 7 1 5 6 2 5 7 7 7 6 7 6 6 7 6 6 6 5 5 4 5 7 6 5 8 9 7 6 7 7 9 11 10 7 6 5 4 4 4 4 5 5 6 6 5 6 7 7 7 7 6 6 6 6 5 6 6 6 6 6 7 7 8 8 8 7 9 10 10 9
3 11 7 -12 -3 9 1 4 10 6 9 13 9 5 3 10 21 17 12 11 9 11 9 5 9 7 6 9 3 4 7 4 4 5 5 6 6 6 7 7 7 7 7 7 6 6 4 4 7 7 6 7 7 6 6 6 6 7 9 10 9 8 7 7 6 5 5 5 5 6 6 5 6 6 7 8 8 7 7 7 6 7 7 8 8 7 8 9 9 8 9 10 10 10 9 8 9
-2 4 10 -5 -6 8 3 3 12 7 7 16 15 7 4 9 15 13 15 15 10 13 15 8 7 8 8 9 6 4 6 5 6 6 4 6 8 7 7 8 9 9 8 7 6 7 6 5 7 8 7 6 5 5 6 6 5 6 7 7 8 8 8 8 8 7 7 6 6 7 6 6 6 6 6 7 8 7 7 7 6 7 7 8 8 8 8 7 7 7 7 8 8 8 8 8 8
1 2 1 -3 -5 -1 0 3 14 14 8 12 18 11 7 10 12 9 10 17 20 16 13 10 4 5 10 10 6 5 6 6 5 6 5 6 7 7 9 9 9 9 8 8 8 8 9 6 6 8 7 5 4 3 4 5 4 5 6 6 6 7 7 8 8 7 8 7 7 7 6 7 6 6 6 7 8 6 6 7 6 6 5 5 6 6 6 6 5 5 5 5 5 5 7 9 8
3 11 0 -3 -2 -5 -2 3 9 12 7 9 15 11 8 12 13 10 3 9 28 30 16 10 6 6 13 13 6 4 6 6 6 7 5 5 5 4 8 10 8 8 8 9 9 9 10 8 6 8 8 6 5 3 3 4 4 5 5 6 6 6 5 6 6 6 7 7 6 7 7 6 6 6 6 7 7 7 7 7 7 6 5 5 6 6 7 6 5 6 5 5 5 5 5 6 8
-4 17 5 -3 9 10 4 3 6 10 6 3 9 10 6 11 15 11 2 -2 14 29 23 14 11 11 16 17 8 4 6 6 6 8 4 2 6 4 5 9 8 7 9 9 9 8 9 10 8 7 8 7 5 4 3 3 4 4 4 6 6 6 6 5 5 5 6 7 6 7 7 7 7 6 7 7 7 7 8 8 8 7 7 7 7 7 9 7 6 7 8 7 7 6 6 6 7
-16 11 7 -7 11 24 10 -0 5 9 7 3 7 12 6 7 16 13 3 -1 0 9 17 20 20 17 18 20 13 5 6 8 6 8 6 2 6 7 5 7 9 8 9 9 8 6 8 10 10 8 7 7 7 4 4 4 4 4 4 6 7 6 6 6 6 5 5 6 6 6 7 7 8 7 7 7 7 8 7 8 10 9 8 9 8 9 10 8 7 7 8 8 7 7 7 7 7
-19 -0 6 -9 -3 15 9 5 15 6 2 9 5 7 8 1 12 17 9 8 7 2 3 11 19 18 17 25 29 17 4 7 8 7 7 2 3 8 6 6 8 8 8 9 8 6 6 8 10 9 5 5 8 6 5 5 4 5 5 5 8 8 6 7 7 6 6 6 5 5 6 6 7 7 8 7 6 8 7 7 8 8 7 8 9 10 9 9 10 8 8 9 9 8 7 7 8
-4 -3 1 -2 -7 0 0 7 26 7 -8 9 5 5 13 2 4 14 12 9 11 11 5 0 5 10 8 17 40 37 8 2 9 8 9 5 3 8 7 6 7 6 7 8 9 8 6 6 8 10 8 4 6 6 6 6 5 6 6 6 8 8 7 8 7 6 6 8 7 5 5 6 6 6 7 7 6 7 6 5 6 6 6 7 8 8 8 9 10 9 9 9 9 10 9 9 8
5 -6 -5 9 2 -1 -2 -3 16 7 -7 11 15 14 18 5 0 7 9 7 6 13 15 5 1 4 2 6 39 51 15 -1 8 8 11 9 5 9 8 6 6 6 7 6 7 9 7 7 6 8 9 6 6 6 5 6 7 8 8 7 8 8 8 7 7 8 8 8 9 6 6 6 5 6 5 5 5 6 5 5 5 5 5 6 7 6 7 8 8 8 9 7 9 10 8 8 7
5 -12 -10 13 6 3 5 -1 9 7 -1 9 11 14 16 6 2 3 5 7 3 8 16 14 8 9 5 2 37 57 17 -3 8 6 9 11 5 8 8 7 6 5 7 5 6 7 6 9 8 7 9 8 7 7 6 6 7 8 9 7 7 7 8 8 8 9 8 8 9 8 9 9 6 6 5 5 6 7 5 4 6 7 5 6 6 5 7 7 6 7 8 6 8 9 7 7 7
13 -6 -10 4 6 9 7 4 15 4 -11 -1 9 11 8 3 5 5 8 11 7 6 11 14 12 16 12 3 42 71 23 -5 8 4 5 10 6 8 7 6 7 4 6 6 7 8 6 7 9 8 9 9 7 6 6 7 7 8 9 8 8 6 6 7 7 9 8 7 9 9 10 11 9 7 6 6 7 7 6 6 7 8 5 5 5 5 7 8 7 7 7 5 6 6 5 6 6
21 6 -0 2 3 11 3 -3 14 7 -14 -8 9 13 7 4 1 0 7 11 10 7 6 12 10 11 13 5 33 61 26 2 10 4 2 6 5 9 8 6 7 6 9 7 5 7 5 5 6 7 9 9 8 6 5 7 7 7 7 6 7 6 6 6 6 8 8 7 8 10 11 10 9 9 8 7 7 7 6 6 8 8 5 5 6 6 8 9 8 8 7 6 6 6 5 5 6
23 13 8 6 4 11 5 -8 -1 3 -11 -15 0 9 10 10 1 -6 0 5 11 10 1 8 11 5 11 11 13 22 11 7 15 13 10 5 3 8 8 7 7 8 10 7 4 6 6 6 4 4 7 9 9 7 5 5 5 5 6 5 5 5 5 6 5 5 6 6 6 8 11 10 8 10 10 8 8 9 8 8 9 8 6 6 7 7 8 8 7 7 8 8 8 7 6 7 7
18 20 15 7 9 17 15 6 2 2 -3 -9 -1 6 3 6 7 3 2 0 7 13 2 1 9 6 8 14 13 9 6 7 9 16 21 12 4 5 6 7 7 9 10 6 5 7 7 9 6 4 6 7 8 9 7 6 4 4 3 3 3 4 4 4 4 4 4 5 5 5 7 9 8 9 8 6 6 7 7 8 8 8 7 6 6 7 8 7 7 7 7 8 7 7 8 8 7
4 20 19 6 9 19 18 13 11 15 15 3 2 9 2 -1 6 7 6 5 5 11 10 3 3 6 6 8 11 11 10 9 9 17 28 24 8 0 3 6 3 6 8 4 5 6 7 10 8 5 5 3 5 7 7 7 6 5 5 4 3 2 3 3 3 4 4 5 5 4 4 6 8 8 6 5 5 6 7 7 6 7 8 7 6 7 7 7 6 6 6 6 7 6 7 7 6
2 9 14 4 -1 12 17 8 4 13 17 6 1 9 8 4 6 2 -1 6 7 7 14 12 2 1 5 4 4 6 8 11 11 12 19 22 13 3 6 7 1 2 6 5 4 3 4 8 10 9 7 4 5 5 5 6 6 6 6 7 6 4 4 5 4 4 4 5 5 4 4 4 6 7 7 6 6 6 7 7 6 7 8 8 7 6 7 7 7 7 6 7 7 6 6 6 7
6 3 11 9 -4 8 21 10 6 7 2 4 8 4 4 9 15 14 5 3 6 5 9 15 10 2 1 3 1 0 3 5 9 14 13 10 9 10 12 11 7 2 1 5 7 4 2 4 7 11 10 8 7 5 4 4 4 6 6 6 7 7 6 6 6 7 6 6 6 5 5 4 4 5 7 6 6 7 6 5 5 6 8 8 7 7 7 7 7 7 7 7 7 7 7 6 7
Height
5907 5906 5905 5903 5902 5903 5903 5904 5903 5903 5903 5903 5903 5902 5901 5901 5901 5900 5900 5901 5901 5902 5902 5902 5902 5903 5903 5903 5902 5902 5902 5902 5900 5901 5901 5901 5902 5902 5902 5902 5902 5902 5901 5901 5901 5902 5903 5903 5903 5903 5904 5904 5904 5905 5905 5906 5907 5908 5908 5909 5909 5909 5909 5909 5910 5910 5910 5911 5911 5911 5912 5912 5913 5914 5914 5914 5914 5914 5914 5914 5915 5915 5915 5915 5915 5915 5915 5915 5915 5916 5917 5917 5918 5918 5918 5919 5919
5907 5906 5904 5900 5900 5902 5903 5903 5904 5904 5904 5904 5903 5903 5902 5901 5901 5901 5901 5901 5902 5902 5902 5903 5903 5903 5903 5903 5903 5903 5903 5903 5902 5901 5901 5902 5903 5903 5903 5903 5902 5902 5902 5902 5902 5902 5903 5904 5904 5905 5905 5905 5906 5906 5906 5907 5908 5909 5909 5909 5910 5910 5910 5911 5911 5911 5910 5910 5911 5911 5911 5912 5913 5914 5915 5914 5914 5914 5913 5914 5914 5915 5915 5915 5916 5915 5915 5915 5916 5916 5917 5918 5918 5918 5919 5919 5919
5908 5906 5903 5900 5901 5902 5903 5904 5904 5904 5904 5904 5904 5903 5903 5902 5902 5901 5901 5902 5902 5903 5903 5903 5903 5904 5904 5903 5904 5904 5904 5904 5904 5903 5902 5903 5903 5904 5904 5904 5903 5903 5903 5903 5903 5904 5904 5905 5905 5906 5906 5907 5907 5907 5908 5908 5909 5910 5910 5910 5910 5911 5911 5911 5911 5911 5911 5911 5911 5911 5911 5912 5913 5914 5915 5914 5914 5914 5913 5914 5914 5914 5914 5915 5916 5915 5915 5916 5916 5916 5917 5918 5918 5919 5919 5919 5920
5908 5907 5905 5903 5903 5904 5904 5905 5905 5905 5904 5904 5905 5904 5904 5903 5903 5902 5902 5902 5903 5903 5903 5904 5904 5904 5904 5904 5905 5905 5905 5905 5906 5904 5902 5904 5905 5905 5905 5905 5905 5904 5904 5904 5904 5905 5905 5906 5907 5907 5908 5908 5908 5908 5909 5910 5910 5911 5911 5911 5911 5911 5911 5911 5911 5911 5911 5911 5911 5911 5912 5912 5913 5914 5914 5914 5914 5914 5914 5914 5914 5914 5914 5914 5915 5915 5915 5916 5916 5917 5917 5918 5919 5919 5920 5920 5920
5909 5908 5906 5906 5906 5905 5905 5906 5906 5905 5905 5905 5905 5905 5904 5904 5904 5903 5903 5903 5903 5904 5904 5904 5904 5904 5905 5906 5906 5905 5905 5906 5907 5905 5903 5905 5907 5906 5906 5906 5906 5906 5905 5905 5905 5906 5906 5907 5908 5908 5909 5909 5909 5909 5910 5911 5911 5912 5911 5911 5911 5911 5911 5912 5912 5912 5912 5912 5912 5912 5912 5912 5913 5914 5914 5914 5914 5914 5914 5914 5914 5914 5914 5914 5915 5915 5915 5916 5916 5917 5917 5918 5919 5920 5920 5921 5921
5909 5908 5907 5907 5907 5907 5906 5907 5907 5906 5906 5906 5905 5905 5905 5905 5904 5904 5904 5904 5904 5904 5904 5904 5904 5905 5905 5906 5906 5906 5906 5905 5907 5907 5904 5906 5908 5908 5907 5907 5907 5907 5907 5906 5906 5907 5907 5908 5908 5909 5909 5909 5909 5910 5911 5911 5911 5911 5911 5911 5911 5911 5912 5912 5913 5913 5913 5912 5912 5912 5912 5912 5913 5913 5914 5914 5914 5914 5914 5914 5914 5913 5914 5914 5915 5915 5916 5916 5917 5917 5917 5918 5919 5920 5921 5921 5921
5910 5909 5909 5909 5908 5907 5907 5907 5907 5907 5906 5906 5906 5906 5905 5905 5905 5905 5905 5905 5905 5905 5905 5905 5905 5905 5906 5906 5907 5908 5907 5906 5907 5907 5906 5907 5909 5909 5908 5908 5908 5908 5908 5907 5907 5907 5908 5908 5909 5909 5909 5910 5910 5911 5911 5911 5911 5911 5911 5911 5912 5912 5913 5913 5913 5913 5913 5912 5912 5911 5911 5912 5913 5913 5914 5914 5914 5914 5914 5914 5914 5914 5914 5915 5915 5916 5916 5917 5918 5918 5918 5919 5920 5921 5922 5922 5922
5911 5910 5909 5909 5909 5908 5908 5908 5908 5907 5907 5907 5906 5906 5906 5906 5906 5906 5906 5906 5906 5906 5906 5906 5906 5906 5907 5907 5907 5908 5908 5908 5908 5908 5908 5908 5909 5909 5909 5909 5909 5908 5908 5907 5907 5908 5908 5909 5909 5910 5910 5910 5911 5911 5911 5911 5911 5911 5911 5911 5912 5913 5913 5913 5913 5913 5912 5912 5912 5911 5911 5913 5913 5914 5914 5914 5914 5914 5914 5914 5914 5914 5915 5915 5916 5917 5917 5918 5919 5919 5919 5919 5921 5922 5923 5923 5923
5911 5910 5910 5910 5909 5909 5909 5908 5908 5908 5907 5907 5907 5906 5907 5906 5906 5906 5907 5907 5907 5907 5907 5907 5907 5908 5908 5908 5908 5908 5909 5909 5909 5909 5909 5910 5910 5910 5910 5910 5910 5909 5908 5908 5908 5908 5909 5909 5910 5910 5911 5911 5911 5912 5912 5911 5911 5911 5911 5912 5912 5913 5913 5913 5913 5913 5912 5912 5912 5912 5913 5914 5914 5913 5914 5914 5914 5913 5913 5913 5914 5914 5915 5916 5917 5918 5919 5919 5919 5920 5920 5920 5921 5923 5924 5924 5924
5911 5911 5911 5910 5909 5910 5910 5909 5908 5908 5908 5908 5907 5907 5907 5907 5907 5907 5907 5907 5908 5908 5908 5908 5908 5908 5909 5909 5909 5909 5909 5909 5909 5910 5910 5911 5911 5911 5911 5911 5910 5909 5909 5909 5909 5910 5910 5911 5911 5911 5912 5912 5912 5912 5912 5912 5912 5912 5912 5913 5913 5913 5913 5913 5913 5913 5913 5913 5912 5913 5913 5914 5913 5913 5913 5913 5914 5913 5913 5913 5914 5915 5916 5917 5918 5919 5920 5920 5920 5921 5921 5921 5922 5923 5924 5924 5925
5911 5911 5911 5910 5910 5910 5910 5909 5909 5909 5909 5908 5908 5907 5907 5907 5907 5907 5907 5907 5908 5908 5909 5909 5909 5909 5910 5910 5910 5910 5910 5910 5910 5910 5911 5911 5911 5911 5911 5911 5911 5910 5910 5910 5911 5911 5912 5912 5912 5913 5913 5913 5914 5914 5913 5913 5913 5913 5914 5914 5914 5914 5914 5914 5914 5913 5913 5913 5913 5913 5913 5913 5912 5911 5911 5912 5912 5912 5913 5913 5914 5915 5916 5917 5918 5919 5920 5921 5921 5922 5922 5922 5923 5924 5925 5925 5925
5912 5911 5911 5910 5910 5910 5910 5910 5910 5909 5909 5909 5908 5907 5907 5907 5907 5907 5907 5907 5908 5909 5909 5910 5910 5911 5911 5910 5911 5911 5911 5911 5911 5911 5911 5912 5912 5912 5912 5912 5912 5912 5912 5912 5912 5912 5913 5913 5913 5914 5914 5914 5914 5914 5914 5914 5914 5914 5915 5915 5915 5915 5915 5915 5914 5914 5914 5913 5912 5911 5911 5911 5911 5911 5911 5911 5912 5912 5912 5913 5914 5915 5916 5918 5919 5920 5921 5921 5922 5922 5923 5923 5924 5925 5925 5926 5926
5913 5912 5912 5912 5911 5911 5910 5910 5910 5909 5909 5909 5908 5907 5907 5907 5908 5908 5908 5907 5908 5909 5910 5910 5911 5912 5911 5911 5912 5913 5913 5913 5912 5912 5911 5912 5913 5913 5913 5913 5913 5912 5913 5913 5913 5913 5914 5914 5914 5914 5915 5915 5915 5915 5915 5915 5915 5915 5916 5916 5916 5916 5915 5915 5915 5915 5914 5913 5912 5911 5910 5910 5911 5911 5911 5911 5911 5911 5912 5913 5914 5915 5916 5918 5919 5920 5921 5921 5922 5923 5923 5924 5925 5926 5926 5926 5927
5913 5913 5913 5912 5911 5911 5910 5910 5910 5909 5909 5909 5908 5907 5907 5907 5907 5908 5909 5908 5908 5909 5910 5910 5912 5912 5912 5912 5912 5914 5915 5914 5914 5913 5913 5914 5914 5914 5914 5914 5913 5913 5914 5914 5914 5915 5915 5915 5915 5915 5916 5916 5916 5916 5917 5916 5916 5917 5917 5917 5916 5916 5916 5915 5915 5915 5914 5913 5912 5911 5911 5911 5911 5911 5911 5911 5911 5911 5912 5913 5914 5915 5916 5918 5919 5920 5921 5922 5922 5923 5924 5925 5925 5926 5927 5927 5927
5913 5913 5913 5912 5911 5910 5910 5910 5910 5910 5910 5909 5909 5908 5908 5907 5907 5908 5909 5909 5908 5909 5910 5911 5912 5913 5913 5913 5912 5914 5915 5914 5914 5914 5914 5914 5915 5915 5915 5914 5914 5914 5915 5915 5916 5916 5916 5917 5917 5917 5917 5917 5918 5918 5918 5917 5917 5917 5917 5917 5916 5916 5916 5915 5915 5914 5914 5914 5912 5911 5911 5911 5911 5911 5912 5912 5912 5912 5912 5913 5914 5915 5916 5918 5919 5920 5921 5922 5923 5923 5924 5925 5926 5927 5927 5928 5928
5913 5912 5912 5912 5910 5910 5909 5909 5910 5910 5910 5910 5909 5908 5908 5908 5908 5908 5909 5909 5909 5909 5910 5911 5912 5913 5914 5914 5913 5914 5914 5914 5915 5915 5915 5915 5915 5915 5915 5915 5915 5915 5916 5916 5917 5917 5917 5918 5918 5918 5918 5918 5918 5918 5918 5917 5917 5917 5917 5917 5916 5916 5915 5915 5914 5914 5914 5913 5912 5912 5912 5912 5912 5912 5913 5913 5913 5913 5913 5913 5914 5915 5917 5918 5919 5921 5922 5923 5924 5924 5925 5926 5926 5927 5927 5928 5929
5912 5912 5911 5911 5910 5909 5909 5909 5909 5909 5910 5910 5909 5909 5908 5908 5908 5908 5909 5910 5909 5910 5911 5911 5912 5913 5914 5914 5914 5914 5914 5915 5915 5915 5915 5915 5915 5915 5915 5915 5916 5916 5916 5917 5917 5918 5918 5918 5918 5918 5918 5918 5918 5918 5917 5916 5916 5916 5916 5916 5916 5915 5915 5915 5914 5914 5913 5913 5912 5912 5912 5912 5913 5913 5913 5914 5914 5914 5913 5914 5915 5916 5917 5918 5920 5921 5922 5924 5925 5925 5925 5926 5927 5928 5928 5928 5929
5911 5911 5910 5910 5909 5909 5909 5908 5908 5908 5909 5909 5909 5909 5908 5908 5909 5909 5909 5910 5910 5910 5911 5911 5912 5913 5914 5914 5915 5915 5914 5915 5915 5916 5916 5915 5915 5915 5915 5916 5916 5917 5917 5917 5918 5918 5918 5918 5918 5918 5918 5918 5918 5917 5917 5916 5916 5916 5916 5916 5916 5915 5915 5915 5914 5914 5913 5913 5913 5913 5913 5913 5913 5914 5914 5915 5915 5915 5914 5915 5915 5917 5918 5919 5920 5921 5923 5924 5925 5926 5926 5927 5928 5928 5929 5929 5930
5911 5911 5910 5909 5909 5909 5908 5907 5908 5907 5907 5908 5907 5907 5907 5907 5908 5909 5909 5910 5910 5910 5911 5912 5912 5913 5914 5914 5915 5915 5915 5915 5915 5915 5916 5916 5916 5916 5916 5916 5916 5917 5917 5918 5918 5919 5919 5919 5919 5918 5918 5918 5918 5918 5917 5917 5917 5916 5916 5916 5916 5916 5915 5915 5915 5914 5914 5914 5914 5914 5914 5914 5914 5915 5915 5915 5916 5915 5915 5916 5917 5918 5919 5920 5921 5922 5924 5925 5926 5926 5927 5928 5929 5929 5929 5930 5931
5910 5910 5909 5908 5908 5908 5907 5907 5908 5906 5906 5906 5905 5906 5906 5907 5907 5908 5910 5910 5911 5911 5911 5912 5912 5914 5914 5915 5915 5916 5915 5915 5915 5915 5916 5916 5916 5917 5916 5916 5917 5918 5918 5919 5919 5920 5920 5920 5919 5919 5919 5919 5919 5919 5918 5918 5918 5917 5917 5917 5916 5916 5916 5916 5916 5915 5915 5915 5915 5915 5915 5915 5915 5915 5916 5916 5916 5916 5916 5917 5918 5919 5920 5921 5922 5923 5925 5925 5926 5927 5928 5929 5929 5930 5930 5931 5932
5909 5909 5907 5907 5907 5907 5905 5905 5905 5904 5903 5904 5905 5906 5906 5907 5907 5908 5910 5910 5911 5911 5911 5912 5913 5914 5915 5915 5916 5916 5916 5916 5916 5916 5916 5917 5918 5918 5917 5917 5917 5918 5919 5920 5920 5920 5920 5920 5920 5920 5920 5920 5919 5919 5919 5919 5918 5918 5917 5917 5917 5917 5917 5917 5917 5916 5916 5916 5916 5916 5916 5916 5916 5917 5917 5917 5917 5917 5917 5918 5919 5921 5922 5922 5923 5925 5926 5927 5927 5928 5929 5930 5930 5931 5931 5932 5933
5909 5908 5906 5906 5907 5906 5904 5902 5903 5903 5902 5902 5905 5905 5904 5906 5907 5908 5909 5910 5911 5911 5912 5912 5913 5914 5915 5916 5916 5917 5917 5917 5916 5917 5917 5918 5918 5919 5918 5918 5918 5919 5920 5920 5921 5921 5921 5921 5921 5920 5920 5920 5920 5920 5920 5919 5919 5919 5918 5918 5918 5918 5918 5918 5918 5917 5917 5917 5917 5917 5918 5918 5918 5918 5918 5919 5918 5918 5919 5920 5921 5922 5923 5924 5925 5926 5927 5928 5929 5930 5930 5931 5932 5933 5933 5934 5935
5908 5906 5905 5906 5906 5906 5903 5900 5901 5901 5900 5900 5904 5905 5904 5906 5907 5908 5909 5910 5911 5911 5912 5912 5912 5913 5915 5917 5917 5917 5918 5917 5917 5917 5918 5918 5919 5920 5920 5919 5919 5919 5920 5921 5922 5922 5922 5922 5922 5921 5921 5921 5921 5921 5921 5920 5920 5920 5919 5919 5919 5919 5919 5919 5919 5919 5919 5919 5919 5919 5919 5919 5919 5919 5920 5920 5920 5920 5921 5922 5923 5924 5925 5926 5926 5927 5928 5929 5930 5931 5931 5932 5933 5934 5935 5936 5937
5906 5905 5905 5905 5905 5905 5903 5901 5900 5900 5899 5899 5902 5905 5906 5907 5907 5909 5910 5910 5911 5911 5912 5913 5913 5914 5915 5917 5918 5918 5919 5919 5918 5918 5919 5920 5920 5921 5921 5921 5920 5920 5921 5922 5923 5923 5924 5923 5923 5923 5922 5922 5922 5922 5922 5922 5921 5921 5920 5920 5920 5920 5920 5920 5920 5920 5920 5920 5920 5920 5920 5920 5920 5920 5921 5921 5921 5922 5922 5923 5924 5925 5926 5927 5928 5928 5929 5930 5931 5932 5933 5933 5934 5936 5937 5938 5938
5905 5905 5904 5904 5904 5904 5902 5902 5902 5901 5899 5899 5900 5904 5906 5907 5908 5910 5910 5910 5911 5911 5912 5913 5914 5914 5915 5917 5918 5919 5920 5920 5920 5920 5920 5921 5922 5923 5923 5922 5922 5922 5922 5923 5924 5925 5925 5925 5925 5924 5924 5923 5923 5923 5923 5923 5923 5922 5922 5921 5921 5921 5921 5921 5921 5921 5921 5921 5921 5921 5921 5921 5921 5922 5922 5922 5923 5923 5924 5925 5926 5927 5928 5928 5929 5930 5931 5932 5932 5933 5934 5935 5936 5937 5938 5939 5939
5904 5904 5904 5904 5904 5903 5902 5902 5903 5902 5900 5900 5902 5904 5906 5907 5909 5910 5910 5910 5911 5911 5912 5913 5914 5915 5915 5917 5919 5920 5920 5921 5922 5922 5922 5922 5923 5924 5924 5924 5923 5923 5923 5924 5925 5925 5926 5926 5926 5925 5925 5924 5924 5924 5924 5924 5924 5923 5923 5922 5922 5922 5922 5922 5922 5922 5922 5922 5922 5922 5923 5923 5923 5923 5923 5923 5923 5924 5925 5926 5927 5928 5929 5930 5931 5932 5932 5933 5934 5935 5936 5936 5937 5938 5939 5940 5941
5903 5904 5903 5903 5903 5902 5901 5901 5902 5902 5901 5902 5904 5905 5906 5907 5908 5910 5910 5911 5911 5912 5912 5913 5914 5915 5916 5917 5919 5920 5921 5922 5922 5922 5923 5923 5924 5925 5926 5925 5925 5924 5924 5925 5926 5926 5927 5927 5927 5927 5926 5926 5925 5925 5925 5925 5925 5925 5924 5924 5924 5924 5924 5924 5924 5924 5923 5923 5924 5923 5923 5924 5923 5924 5924 5924 5924 5925 5926 5927 5928 5929 5930 5931 5932 5933 5934 5935 5936 5937 5938 5938 5939 5939 5940 5941 5942
5902 5903 5903 5903 5903 5902 5901 5901 5902 5903 5903 5903 5905 5906 5906 5907 5908 5910 5910 5910 5911 5911 5912 5912 5913 5915 5916 5917 5919 5920 5921 5922 5923 5923 5923 5923 5924 5925 5926 5926 5926 5925 5925 5926 5927 5927 5928 5928 5928 5927 5927 5927 5927 5926 5926 5926 5926 5926 5925 5925 5925 5925 5925 5925 5925 5925 5925 5925 5925 5925 5925 5925 5925 5925 5925 5926 5926 5927 5928 5929 5929 5931 5932 5933 5934 5935 5936 5937 5938 5939 5940 5940 5941 5941 5942 5942 5943
5901 5902 5902 5902 5902 5902 5902 5902 5903 5904 5904 5905 5905 5906 5906 5907 5908 5910 5910 5910 5911 5911 5912 5912 5913 5914 5915 5917 5918 5920 5922 5922 5923 5923 5923 5924 5924 5925 5926 5927 5927 5927 5926 5926 5927 5928 5928 5928 5928 5928 5928 5928 5928 5928 5927 5927 5927 5927 5927 5926 5926 5927 5927 5927 5927 5927 5926 5926 5926 5926 5926 5926 5926 5926 5927 5927 5928 5928 5929 5930 5931 5932 5933 5935 5936 5937 5937 5938 5940 5941 5942 5942 5942 5943 5944 5944 5945
5900 5901 5901 5902 5902 5902 5903 5903 5903 5904 5905 5905 5906 5906 5906 5907 5908 5909 5910 5910 5910 5912 5912 5912 5912 5913 5915 5916 5918 5920 5921 5923 5923 5924 5924 5924 5925 5926 5926 5927 5927 5928 5927 5927 5928 5928 5929 5929 5929 5929 5929 5929 5929 5929 5929 5929 5929 5928 5928 5928 5928 5928 5928 5928 5928 5928 5928 5928 5928 5928 5928 5928 5928 5929 5929 5930 5930 5930 5931 5932 5933 5934 5935 5936 5937 5938 5939 5940 5941 5942 5943 5944 5944 5945 5946 5946 5947
5899 5900 5901 5901 5901 5902 5903 5903 5903 5904 5905 5905 5906 5906 5906 5907 5908 5909 5910 5910 5910 5911 5912 5912 5913 5913 5914 5915 5917 5919 5921 5923 5924 5924 5925 5925 5925 5926 5927 5927 5927 5928 5928 5928 5929 5929 5929 5930 5930 5930 5930 5930 5930 5930 5930 5930 5930 5929 5929 5929 5930 5930 5930 5930 5930 5930 5930 5929 5929 5930 5930 5930 5930 5931 5932 5932 5932 5933 5934 5934 5935 5936 5937 5938 5939 5940 5941 5942 5943 5943 5944 5945 5947 5947 5948 5948 5948
5897 5898 5899 5899 5900 5901 5902 5903 5904 5904 5904 5905 5905 5906 5907 5907 5907 5908 5909 5910 5911 5911 5912 5913 5913 5913 5914 5915 5917 5918 5920 5922 5924 5925 5925 5925 5926 5926 5927 5927 5928 5928 5929 5929 5929 5930 5930 5931 5931 5931 5931 5931 5931 5931 5931 5931 5931 5930 5930 5931 5931 5932 5932 5932 5931 5931 5931 5931 5932 5932 5932 5932 5932 5933 5934 5934 5934 5935 5936 5936 5937 5938 5939 5940 5941 5942 5943 5944 5944 5945 5946 5947 5948 5949 5949 5949 5949
5895 5896 5897 5898 5899 5900 5901 5902 5903 5904 5904 5905 5905 5906 5906 5907 5907 5907 5909 5910 5911 5911 5912 5913 5913 5914 5914 5915 5916 5918 5920 5922 5923 5925 5926 5926 5926 5927 5927 5928 5928 5929 5929 5930 5930 5930 5931 5932 5932 5932 5931 5931 5931 5932 5932 5932 5932 5931 5932 5933 5933 5933 5933 5933 5933 5933 5933 5933 5933 5934 5934 5934 5934 5934 5935 5935 5936 5937 5937 5938 5939 5941 5941 5942 5944 5945 5945 5946 5946 5947 5948 5949 5949 5949 5949 5949 5950
5893 5894 5896 5897 5897 5898 5899 5901 5901 5903 5904 5904 5905 5905 5906 5906 5907 5907 5908 5909 5910 5911 5912 5913 5913 5914 5914 5915 5916 5918 5919 5921 5923 5925 5926 5926 5927 5928 5928 5928 5929 5929 5929 5930 5931 5931 5931 5932 5932 5932 5932 5932 5932 5932 5933 5933 5932 5933 5933 5934 5934 5934 5934 5935 5935 5935 5935 5935 5935 5935 5936 5936 5936 5936 5937 5937 5938 5938 5939 5941 5942 5943 5944 5945 5946 5946 5947 5948 5948 5949 5950 5950 5950 5950 5950 5950 5950
5892 5894 5895 5896 5896 5897 5898 5899 5900 5901 5902 5903 5904 5905 5905 5906 5906 5907 5907 5908 5909 5910 5911 5912 5913 5913 5914 5915 5916 5917 5919 5920 5922 5924 5926 5926 5927 5928 5929 5929 5929 5930 5930 5930 5931 5932 5932 5932 5933 5933 5933 5933 5933 5933 5934 5934 5934 5934 5935 5935 5935 5935 5936 5936 5936 5937 5937 5937 5937 5937 5938 5938 5938 5939 5939 5939 5940 5940 5942 5943 5944 5945 5946 5946 5947 5948 5948 5949 5949 5950 5950 5951 5951 5951 5951 5951 5951
5890 5891 5892 5893 5894 5896 5897 5898 5899 5900 5901 5902 5903 5904 5904 5904 5905 5905 5906 5907 5909 5909 5910 5911 5911 5912 5913 5914 5915 5917 5918 5919 5921 5923 5925 5926 5927 5929 5929 5929 5930 5930 5930 5930 5931 5932 5933 5933 5933 5933 5933 5933 5933 5933 5934 5934 5935 5936 5936 5936 5936 5937 5937 5937 5938 5938 5939 5939 5939 5939 5939 5939 5940 5941 5941 5942 5942 5943 5944 5945 5946 5947 5947 5948 5948 5949 5950 5950 5950 5951 5951 5951 5952 5952 5952 5952 5951
5888 5889 5890 5891 5892 5894 5895 5896 5898 5899 5900 5901 5902 5902 5902 5902 5903 5904 5906 5907 5908 5909 5910 5910 5910 5911 5912 5913 5914 5915 5917 5918 5920 5922 5925 5926 5927 5928 5930 5930 5930 5930 5931 5931 5931 5932 5932 5933 5933 5933 5934 5934 5934 5934 5934 5935 5936 5937 5937 5937 5938 5938 5938 5939 5939 5940 5940 5941 5941 5941 5941 5941 5942 5942 5943 5944 5944 5945 5946 5946 5947 5948 5948 5949 5950 5950 5951 5951 5951 5951 5952 5952 5952 5952 5953 5952 5952
5885 5887 5888 5889 5891 5892 5894 5895 5896 5897 5898 5899 5900 5900 5900 5902 5903 5904 5905 5907 5907 5909 5910 5910 5910 5910 5911 5912 5913 5915 5916 5917 5919 5921 5924 5926 5926 5928 5930 5930 5931 5931 5931 5931 5932 5932 5932 5932 5933 5933 5933 5934 5934 5935 5935 5936 5937 5938 5938 5939 5939 5940 5940 5940 5940 5941 5941 5942 5942 5942 5943 5943 5944 5944 5945 5945 5946 5946 5947 5948 5948 5949 5949 5950 5950 5951 5951 5951 5952 5952 5952 5952 5952 5953 5953 5953 5953
5882 5884 5885 5887 5889 5891 5893 5894 5894 5895 5896 5897 5897 5898 5900 5902 5902 5902 5903 5904 5905 5907 5909 5910 5910 5910 5911 5912 5912 5914 5915 5917 5918 5920 5922 5925 5925 5927 5929 5931 5931 5932 5932 5932 5933 5932 5932 5933 5933 5933 5933 5934 5935 5935 5936 5937 5938 5939 5939 5940 5940 5941 5941 5942 5942 5942 5943 5943 5943 5944 5944 5945 5945 5946 5946 5946 5947 5947 5948 5948 5949 5949 5949 5950 5950 5951 5951 5951 5952 5952 5952 5952 5953 5953 5954 5954 5954
5878 5881 5883 5885 5887 5889 5891 5892 5893 5894 5895 5896 5896 5897 5898 5900 5900 5900 5901 5903 5904 5905 5907 5908 5909 5909 5910 5911 5912 5913 5915 5916 5917 5918 5920 5923 5925 5925 5928 5930 5931 5932 5932 5933 5933 5933 5933 5934 5934 5934 5935 5935 5936 5937 5937 5938 5939 5939 5940 5940 5941 5941 5942 5942 5943 5943 5943 5944 5944 5945 5945 5946 5946 5947 5947 5947 5947 5947 5948 5948 5949 5949 5950 5950 5951 5951 5951 5952 5952 5952 5953 5953 5953 5954 5954 5955 5954
5877 5880 5882 5883 5885 5888 5890 5891 5892 5893 5894 5894 5894 5895 5896 5898 5898 5898 5899 5900 5902 5904 5905 5906 5907 5908 5909 5910 5911 5913 5914 5915 5916 5918 5919 5921 5924 5924 5926 5928 5929 5930 5932 5933 5933 5934 5934 5935 5936 5936 5936 5937 5938 5938 5938 5939 5939 5939 5940 5940 5941 5941 5942 5943 5943 5944 5944 5945 5945 5945 5946 5946 5947 5947 5947 5947 5948 5948 5948 5948 5949 5950 5950 5951 5951 5951 5952 5952 5953 5953 5953 5953 5954 5954 5955 5955 5955
5876 5878 5880 5883 5885 5887 5888 5890 5891 5891 5892 5893 5894 5895 5895 5896 5897 5897 5897 5899 5901 5902 5903 5905 5906 5907 5908 5910 5910 5912 5914 5915 5916 5917 5918 5920 5922 5923 5924 5926 5928 5929 5931 5932 5933 5934 5935 5936 5937 5937 5938 5938 5939 5939 5939 5939 5940 5940 5940 5940 5941 5942 5942 5943 5943 5944 5944 5945 5945 5946 5946 5947 5947 5948 5948 5948 5948 5949 5949 5949 5950 5950 5951 5951 5952 5952 5953 5953 5953 5953 5954 5954 5954 5954 5955 5955 5956
5875 5877 5880 5882 5884 5886 5888 5889 5890 5890 5890 5891 5892 5893 5894 5895 5896 5896 5896 5898 5899 5900 5901 5903 5904 5906 5907 5909 5909 5911 5913 5914 5915 5917 5917 5919 5921 5922 5923 5925 5926 5928 5929 5931 5932 5933 5934 5935 5936 5937 5938 5939 5939 5940 5940 5940 5940 5940 5940 5941 5941 5942 5942 5943 5943 5944 5944 5945 5945 5946 5946 5947 5947 5948 5948 5949 5949 5949 5950 5950 5950 5951 5951 5952 5952 5953 5953 5953 5954 5954 5954 5954 5954 5954 5955 5955 5956
5875 5876 5879 5881 5882 5884 5886 5888 5889 5889 5889 5890 5891 5891 5893 5894 5895 5895 5895 5896 5897 5898 5899 5901 5902 5904 5906 5908 5908 5909 5912 5913 5915 5916 5917 5918 5920 5921 5922 5923 5925 5927 5928 5929 5931 5932 5933 5934 5936 5937 5938 5938 5939 5940 5940 5941 5941 5941 5941 5941 5941 5942 5942 5943 5943 5944 5944 5945 5945 5946 5946 5947 5947 5948 5948 5949 5949 5950 5950 5950 5951 5951 5952 5952 5953 5953 5953 5953 5953 5954 5954 5954 5954 5955 5955 5955 5955
5873 5873 5876 5879 5881 5883 5884 5885 5886 5886 5887 5888 5889 5890 5892 5893 5893 5894 5895 5895 5896 5896 5898 5899 5901 5902 5904 5906 5907 5908 5910 5912 5913 5915 5916 5917 5919 5920 5921 5922 5924 5925 5927 5928 5930 5931 5932 5934 5935 5936 5937 5938 5939 5940 5940 5941 5941 5941 5942 5942 5942 5942 5943 5943 5943 5944 5944 5945 5945 5946 5946 5947 5947 5948 5948 5949 5949 5950 5950 5951 5951 5951 5952 5952 5953 5953 5953 5953 5953 5954 5954 5954 5954 5955 5955 5956 5956
5871 5871 5874 5877 5879 5880 5882 5883 5883 5885 5886 5887 5888 5890 5891 5892 5892 5893 5894 5894 5895 5895 5897 5898 5899 5900 5901 5903 5905 5907 5908 5910 5912 5914 5915 5916 5917 5919 5920 5921 5923 5924 5926 5928 5929 5930 5931 5932 5934 5935 5936 5937 5938 5939 5940 5941 5941 5942 5942 5942 5943 5943 5943 5943 5944 5944 5945 5945 5945 5946 5946 5947 5947 5948 5948 5949 5950 5950 5950 5951 5951 5952 5952 5953 5953 5953 5953 5953 5954 5954 5954 5954 5954 5955 5955 5956 5956
5868 5870 5873 5875 5876 5877 5879 5881 5881 5883 5885 5886 5888 5889 5890 5890 5891 5892 5893 5893 5894 5894 5896 5897 5897 5898 5899 5901 5903 5905 5907 5909 5910 5912 5914 5915 5916 5918 5919 5921 5922 5923 5925 5927 5928 5929 5930 5931 5933 5934 5935 5936 5937 5938 5939 5940 5941 5941 5942 5942 5943 5943 5944 5944 5945 5945 5945 5945 5946 5946 5947 5947 5948 5948 5949 5949 5950 5950 5951 5951 5952 5952 5953 5953 5953 5953 5954 5954 5954 5954 5954 5954 5955 5955 5955 5956 5956
5866 5868 5871 5873 5873 5874 5876 5878 5879 5881 5883 5885 5888 5888 5888 5889 5890 5891 5892 5892 5893 5894 5895 5896 5896 5897 5898 5899 5900 5902 5905 5907 5909 5910 5912 5913 5915 5918 5919 5920 5922 5923 5924 5926 5927 5928 5929 5930 5932 5933 5934 5935 5936 5937 5939 5940 5941 5941 5942 5942 5943 5944 5944 5945 5945 5946 5946 5946 5947 5947 5947 5948 5948 5949 5949 5950 5950 5951 5951 5952 5952 5953 5953 5953 5953 5954 5954 5954 5954 5954 5954 5955 5955 5956 5956 5956 5956
5864 5866 5869 5870 5870 5871 5873 5874 5876 5880 5883 5885 5886 5886 5886 5889 5890 5890 5891 5892 5892 5893 5893 5894 5895 5896 5896 5896 5897 5899 5902 5904 5907 5909 5911 5912 5914 5916 5919 5920 5921 5923 5923 5925 5926 5927 5928 5929 5931 5932 5933 5934 5935 5936 5937 5939 5940 5941 5941 5942 5943 5943 5944 5945 5945 5946 5946 5947 5947 5947 5948 5948 5949 5949 5950 5950 5951 5951 5951 5952 5952 5953 5953 5954 5954 5954 5954 5955 5955 5955 5955 5955 5955 5956 5956 5956 5956
5863 5865 5866 5867 5868 5870 5872 5873 5875 5879 5882 5883 5882 5883 5885 5888 5889 5889 5890 5891 5892 5892 5893 5893 5894 5894 5894 5894 5894 5895 5898 5902 5905 5907 5909 5911 5912 5914 5917 5919 5920 5922 5923 5924 5925 5927 5927 5929 5930 5931 5932 5933 5934 5935 5936 5937 5939 5940 5941 5941 5942 5943 5944 5944 5945 5945 5946 5947 5947 5948 5948 5948 5949 5949 5950 5950 5951 5951 5952 5952 5953 5953 5953 5954 5954 5954 5955 5955 5955 5955 5955 5955 5955 5956 5956 5955 5955
5862 5863 5863 5864 5867 5869 5871 5873 5875 5879 5880 5880 5879 5880 5883 5886 5887 5888 5888 5889 5891 5892 5892 5892 5892 5893 5892 5892 5891 5892 5895 5899 5903 5905 5907 5909 5911 5912 5915 5917 5919 5920 5922 5923 5924 5926 5927 5928 5929 5930 5931 5932 5933 5934 5935 5936 5937 5939 5940 5941 5942 5942 5943 5944 5945 5945 5946 5946 5947 5947 5948 5948 5949 5949 5950 5950 5951 5951 5951 5952 5952 5952 5953 5953 5953 5954 5954 5955 5955 5955 5955 5955 5955 5956 5956 5955 5955
5860 5861 5862 5863 5865 5868 5870 5872 5874 5876 5877 5878 5877 5878 5881 5884 5885 5886 5887 5888 5889 5890 5891 5891 5891 5891 5891 5891 5889 5890 5894 5898 5901 5903 5905 5907 5909 5910 5912 5915 5917 5919 5920 5921 5923 5925 5926 5926 5928 5929 5930 5931 5932 5933 5934 5935 5936 5937 5939 5940 5941 5942 5942 5943 5944 5945 5945 5946 5946 5947 5948 5948 5949 5949 5949 5950 5950 5950 5951 5951 5951 5952 5952 5953 5953 5953 5954 5954 5955 5955 5955 5955 5955 5955 5955 5955 5955
5858 5859 5861 5862 5864 5867 5870 5872 5873 5875 5876 5876 5876 5877 5879 5882 5883 5884 5885 5886 5887 5888 5889 5890 5890 5890 5890 5891 5890 5890 5894 5898 5899 5901 5903 5905 5907 5909 5910 5913 5915 5917 5919 5919 5921 5923 5924 5925 5926 5927 5929 5930 5931 5932 5933 5934 5935 5936 5937 5939 5940 5941 5942 5942 5943 5944 5945 5945 5946 5946 5947 5948 5948 5949 5949 5949 5950 5950 5950 5951 5951 5951 5952 5952 5952 5953 5953 5953 5954 5954 5955 5955 5955 5955 5955 5954 5954
5854 5855 5858 5860 5863 5865 5867 5869 5871 5873 5875 5875 5875 5876 5878 5879 5881 5882 5883 5884 5885 5886 5887 5888 5888 5889 5889 5890 5891 5892 5895 5897 5898 5899 5900 5902 5905 5907 5909 5911 5913 5916 5918 5918 5918 5920 5922 5923 5924 5925 5927 5928 5929 5931 5932 5933 5934 5935 5936 5937 5938 5939 5941 5942 5942 5943 5944 5945 5945 5946 5946 5947 5948 5948 5949 5949 5949 5950 5950 5950 5951 5951 5951 5951 5952 5952 5952 5953 5953 5954 5954 5954 5954 5954 5954 5954 5954
5849 5852 5855 5859 5860 5862 5864 5866 5869 5871 5873 5873 5874 5875 5876 5878 5880 5881 5882 5883 5883 5884 5885 5885 5886 5887 5888 5889 5890 5892 5894 5895 5896 5897 5898 5900 5903 5905 5908 5909 5911 5913 5916 5916 5916 5917 5919 5921 5922 5923 5925 5926 5928 5929 5930 5932 5933 5934 5935 5936 5937 5938 5939 5940 5941 5942 5943 5944 5945 5945 5946 5946 5947 5948 5948 5948 5949 5949 5950 5950 5950 5950 5951 5951 5951 5951 5952 5952 5952 5953 5953 5953 5953 5953 5953 5953 5953
5849 5852 5855 5856 5857 5860 5862 5864 5867 5869 5871 5871 5872 5874 5875 5876 5878 5880 5881 5882 5881 5882 5883 5884 5885 5885 5886 5888 5889 5891 5892 5893 5894 5895 5896 5897 5900 5903 5905 5907 5909 5911 5913 5914 5915 5915 5916 5918 5920 5921 5923 5924 5926 5927 5929 5930 5931 5932 5933 5934 5936 5937 5938 5939 5940 5941 5942 5943 5944 5944 5945 5945 5946 5947 5947 5948 5948 5948 5949 5949 5950 5950 5950 5950 5950 5951 5951 5951 5951 5952 5952 5952 5952 5953 5953 5953 5953
5850 5852 5852 5852 5854 5857 5858 5861 5864 5867 5868 5869 5870 5872 5873 5874 5876 5878 5879 5879 5880 5880 5881 5883 5884 5885 5885 5886 5887 5888 5890 5891 5892 5893 5894 5895 5898 5901 5903 5905 5907 5909 5911 5912 5913 5913 5914 5915 5917 5919 5920 5922 5924 5925 5926 5928 5929 5930 5932 5933 5934 5935 5936 5937 5938 5939 5940 5941 5942 5943 5944 5945 5945 5946 5946 5947 5947 5948 5948 5948 5949 5949 5949 5949 5949 5950 5950 5951 5951 5951 5951 5951 5952 5952 5952 5952 5952
5848 5849 5849 5849 5851 5853 5855 5858 5861 5863 5865 5866 5868 5870 5871 5872 5874 5875 5876 5877 5878 5879 5880 5881 5882 5884 5885 5885 5886 5887 5887 5888 5890 5891 5893 5895 5898 5900 5902 5903 5905 5906 5908 5910 5911 5912 5912 5913 5915 5916 5918 5920 5921 5922 5924 5925 5926 5928 5929 5931 5932 5933 5934 5935 5936 5937 5938 5939 5941 5942 5942 5943 5944 5945 5946 5946 5946 5947 5947 5947 5948 5948 5948 5948 5949 5949 5949 5949 5950 5950 5951 5951 5951 5951 5951 5952 5952